Time,TemperatureF,DewpointF,PressureIn,WindDirection,WindDirectionDegrees,WindSpeedMPH,WindSpeedGustMPH,Humidity,HourlyPrecipIn,Conditions,Clouds,dailyrainin,SoftwareType,DateUTC
2013-01-17 00:02:00,9.0,4.0,30.37,North,-999,-999.0,-999.0,80,-99.99,,,-99.99,,2013-01-17 07:02:00,
2013-01-17 00:12:00,13.0,7.0,30.38,North,-999,-999.0,-999.0,74,-99.99,,,-99.99,,2013-01-17 07:12:00,
2013-01-17 00:22:00,13.0,7.0,30.38,North,-999,-999.0,-999.0,74,-99.99,,,-99.99,,2013-01-17 07:22:00,
2013-01-17 00:33:00,13.0,7.0,30.38,North,-999,-999.0,-999.0,74,-99.99,,,-99.99,,2013-01-17 07:33:00,
2013-01-17 00:42:00,10.0,4.0,30.39,North,-999,-999.0,-999.0,76,-99.99,,,-99.99,,2013-01-17 07:42:00,
2013-01-17 00:52:00,10.0,4.0,30.39,North,-999,-999.0,-999.0,76,-99.99,,,-99.99,,2013-01-17 07:52:00,
2013-01-17 01:02:00,10.0,4.0,30.39,North,-999,-999.0,-999.0,76,-99.99,,,-99.99,,2013-01-17 08:02:00,
2013-01-17 01:12:00,12.0,5.0,30.39,North,-999,-999.0,-999.0,72,-99.99,,,-99.99,,2013-01-17 08:12:00,
2013-01-17 01:22:00,12.0,5.0,30.39,North,-999,-999.0,-999.0,72,-99.99,,,-99.99,,2013-01-17 08:22:00,
2013-01-17 01:32:00,12.0,5.0,30.39,North,-999,-999.0,-999.0,72,-99.99,,,-99.99,,2013-01-17 08:32:00,
2013-01-17 01:43:00,12.0,5.0,30.39,North,-999,-999.0,-999.0,72,-99.99,,,-99.99,,2013-01-17 08:43:00,
2013-01-17 01:53:00,12.0,4.0,30.39,North,-999,-999.0,-999.0,69,-99.99,,,-99.99,,2013-01-17 08:53:00,
2013-01-17 02:02:00,12.0,4.0,30.39,North,-999,-999.0,-999.0,69,-99.99,,,-99.99,,2013-01-17 09:02:00,
2013-01-17 02:12:00,9.0,3.0,30.41,North,-999,-999.0,-999.0,73,-99.99,,,-99.99,,2013-01-17 09:12:00,
2013-01-17 02:22:00,9.0,3.0,30.41,North,-999,-999.0,-999.0,73,-99.99,,,-99.99,,2013-01-17 09:22:00,
2013-01-17 02:32:00,9.0,3.0,30.41,North,-999,-999.0,-999.0,73,-99.99,,,-99.99,,2013-01-17 09:32:00,
2013-01-17 02:43:00,9.0,3.0,30.41,North,-999,-999.0,-999.0,73,-99.99,,,-99.99,,2013-01-17 09:43:00,
2013-01-17 02:52:00,10.0,4.0,30.41,North,-999,-999.0,-999.0,73,-99.99,,,-99.99,,2013-01-17 09:52:00,
2013-01-17 03:02:00,10.0,4.0,30.41,North,-999,-999.0,-999.0,73,-99.99,,,-99.99,,2013-01-17 10:02:00,
2013-01-17 03:12:00,10.0,4.0,30.41,North,-999,-999.0,-999.0,73,-99.99,,,-99.99,,2013-01-17 10:12:00,
2013-01-17 03:22:00,12.0,4.0,30.41,North,-999,-999.0,-999.0,71,-99.99,,,-99.99,,2013-01-17 10:22:00,
2013-01-17 03:32:00,12.0,4.0,30.41,North,-999,-999.0,-999.0,71,-99.99,,,-99.99,,2013-01-17 10:32:00,
2013-01-17 03:43:00,12.0,4.0,30.41,North,-999,-999.0,-999.0,71,-99.99,,,-99.99,,2013-01-17 10:43:00,
2013-01-17 03:53:00,12.0,4.0,30.41,North,-999,-999.0,-999.0,69,-99.99,,,-99.99,,2013-01-17 10:53:00,
2013-01-17 04:02:00,12.0,4.0,30.41,North,-999,-999.0,-999.0,69,-99.99,,,-99.99,,2013-01-17 11:02:00,
2013-01-17 04:12:00,11.0,3.0,30.41,North,-999,-999.0,-999.0,69,-99.99,,,-99.99,,2013-01-17 11:12:00,
2013-01-17 04:22:00,11.0,3.0,30.41,North,-999,-999.0,-999.0,69,-99.99,,,-99.99,,2013-01-17 11:22:00,
2013-01-17 04:32:00,11.0,3.0,30.41,North,-999,-999.0,-999.0,69,-99.99,,,-99.99,,2013-01-17 11:32:00,
2013-01-17 04:43:00,11.0,3.0,30.41,North,-999,-999.0,-999.0,69,-99.99,,,-99.99,,2013-01-17 11:43:00,
2013-01-17 04:53:00,11.0,3.0,30.41,North,-999,-999.0,-999.0,69,-99.99,,,-99.99,,2013-01-17 11:53:00,
2013-01-17 05:02:00,11.0,3.0,30.41,North,-999,-999.0,-999.0,69,-99.99,,,-99.99,,2013-01-17 12:02:00,
2013-01-17 05:12:00,11.0,3.0,30.41,North,-999,-999.0,-999.0,69,-99.99,,,-99.99,,2013-01-17 12:12:00,
2013-01-17 05:22:00,10.0,3.0,30.41,North,-999,-999.0,-999.0,70,-99.99,,,-99.99,,2013-01-17 12:22:00,
2013-01-17 05:32:00,10.0,3.0,30.41,North,-999,-999.0,-999.0,70,-99.99,,,-99.99,,2013-01-17 12:32:00,
2013-01-17 05:43:00,10.0,4.0,30.41,North,-999,-999.0,-999.0,74,-99.99,,,-99.99,,2013-01-17 12:43:00,
2013-01-17 05:53:00,10.0,4.0,30.41,North,-999,-999.0,-999.0,74,-99.99,,,-99.99,,2013-01-17 12:53:00,
2013-01-17 06:03:00,10.0,4.0,30.41,North,-999,-999.0,-999.0,74,-99.99,,,-99.99,,2013-01-17 13:03:00,
2013-01-17 06:12:00,11.0,4.0,30.41,North,-999,-999.0,-999.0,70,-99.99,,,-99.99,,2013-01-17 13:12:00,
2013-01-17 06:22:00,11.0,4.0,30.41,North,-999,-999.0,-999.0,70,-99.99,,,-99.99,,2013-01-17 13:22:00,
2013-01-17 06:33:00,11.0,4.0,30.41,North,-999,-999.0,-999.0,70,-99.99,,,-99.99,,2013-01-17 13:33:00,
2013-01-17 06:43:00,7.0,2.0,30.41,North,-999,-999.0,-999.0,77,-99.99,,,-99.99,,2013-01-17 13:43:00,
2013-01-17 06:53:00,7.0,2.0,30.41,North,-999,-999.0,-999.0,77,-99.99,,,-99.99,,2013-01-17 13:53:00,
2013-01-17 07:03:00,7.0,2.0,30.41,North,-999,-999.0,-999.0,77,-99.99,,,-99.99,,2013-01-17 14:03:00,
2013-01-17 07:12:00,9.0,2.0,30.41,North,-999,-999.0,-999.0,71,-99.99,,,-99.99,,2013-01-17 14:12:00,
2013-01-17 07:23:00,9.0,2.0,30.41,North,-999,-999.0,-999.0,71,-99.99,,,-99.99,,2013-01-17 14:23:00,
2013-01-17 07:33:00,9.0,2.0,30.41,North,-999,-999.0,-999.0,71,-99.99,,,-99.99,,2013-01-17 14:33:00,
2013-01-17 07:43:00,6.0,-2.0,30.42,North,-999,-999.0,-999.0,69,-99.99,,,-99.99,,2013-01-17 14:43:00,
2013-01-17 07:53:00,6.0,-2.0,30.42,North,-999,-999.0,-999.0,69,-99.99,,,-99.99,,2013-01-17 14:53:00,
2013-01-17 08:03:00,6.0,-2.0,30.42,North,-999,-999.0,-999.0,69,-99.99,,,-99.99,,2013-01-17 15:03:00,
2013-01-17 08:12:00,6.0,-2.0,30.42,North,-999,-999.0,-999.0,69,-99.99,,,-99.99,,2013-01-17 15:12:00,
2013-01-17 08:22:00,8.0,-1.0,30.43,North,-999,-999.0,-999.0,67,-99.99,,,-99.99,,2013-01-17 15:22:00,
2013-01-17 08:33:00,8.0,-1.0,30.43,North,-999,-999.0,-999.0,67,-99.99,,,-99.99,,2013-01-17 15:33:00,
2013-01-17 08:43:00,2.0,-2.0,30.45,North,-999,-999.0,-999.0,80,-99.99,,,-99.99,,2013-01-17 15:43:00,
2013-01-17 08:53:00,2.0,-2.0,30.45,North,-999,-999.0,-999.0,80,-99.99,,,-99.99,,2013-01-17 15:53:00,
2013-01-17 09:02:00,2.0,-2.0,30.45,North,-999,-999.0,-999.0,80,-99.99,,,-99.99,,2013-01-17 16:02:00,
2013-01-17 09:12:00,10.0,3.0,30.45,North,-999,-999.0,-999.0,71,-99.99,,,-99.99,,2013-01-17 16:12:00,
2013-01-17 09:22:00,10.0,3.0,30.45,North,-999,-999.0,-999.0,71,-99.99,,,-99.99,,2013-01-17 16:22:00,
2013-01-17 09:33:00,10.0,3.0,30.45,North,-999,-999.0,-999.0,71,-99.99,,,-99.99,,2013-01-17 16:33:00,
2013-01-17 09:44:00,10.0,3.0,30.45,North,-999,-999.0,-999.0,71,-99.99,,,-99.99,,2013-01-17 16:44:00,
2013-01-17 09:53:00,16.0,4.0,30.45,North,-999,-999.0,-999.0,58,-99.99,,,-99.99,,2013-01-17 16:53:00,
2013-01-17 10:00:00,17.0,5.0,30.45,North,-999,-999.0,-999.0,59,-99.99,,,-99.99,,2013-01-17 17:00:00,
2013-01-17 10:03:00,16.0,4.0,30.45,North,-999,-999.0,-999.0,58,-99.99,,,-99.99,,2013-01-17 17:03:00,
2013-01-17 10:12:00,16.0,4.0,30.45,North,-999,-999.0,-999.0,58,-99.99,,,-99.99,,2013-01-17 17:12:00,
2013-01-17 10:22:00,17.0,5.0,30.45,North,-999,-999.0,-999.0,59,-99.99,,,-99.99,,2013-01-17 17:22:00,
2013-01-17 10:33:00,17.0,5.0,30.45,North,-999,-999.0,-999.0,59,-99.99,,,-99.99,,2013-01-17 17:33:00,
2013-01-17 10:43:00,17.0,5.0,30.45,North,-999,-999.0,-999.0,59,-99.99,,,-99.99,,2013-01-17 17:43:00,
2013-01-17 10:53:00,17.0,5.0,30.45,North,-999,-999.0,-999.0,59,-99.99,,,-99.99,,2013-01-17 17:53:00,
2013-01-17 12:43:00,25.0,11.0,30.38,North,-999,-999.0,-999.0,55,-99.99,,,-99.99,,2013-01-17 19:43:00,
2013-01-17 12:53:00,25.0,11.0,30.38,North,-999,-999.0,-999.0,55,-99.99,,,-99.99,,2013-01-17 19:53:00,
2013-01-17 13:03:00,25.0,11.0,30.38,North,-999,-999.0,-999.0,55,-99.99,,,-99.99,,2013-01-17 20:03:00,
2013-01-17 13:12:00,24.0,11.0,30.37,North,-999,-999.0,-999.0,58,-99.99,,,-99.99,,2013-01-17 20:12:00,
2013-01-17 13:23:00,24.0,11.0,30.37,North,-999,-999.0,-999.0,58,-99.99,,,-99.99,,2013-01-17 20:23:00,
2013-01-17 13:33:00,24.0,11.0,30.37,North,-999,-999.0,-999.0,58,-99.99,,,-99.99,,2013-01-17 20:33:00,
2013-01-17 13:43:00,27.0,14.0,30.35,North,-999,-999.0,-999.0,59,-99.99,,,-99.99,,2013-01-17 20:43:00,
2013-01-17 13:54:00,27.0,14.0,30.35,North,-999,-999.0,-999.0,59,-99.99,,,-99.99,,2013-01-17 20:54:00,
2013-01-17 14:03:00,27.0,14.0,30.35,North,-999,-999.0,-999.0,59,-99.99,,,-99.99,,2013-01-17 21:03:00,
2013-01-17 14:13:00,25.0,13.0,30.35,North,-999,-999.0,-999.0,59,-99.99,,,-99.99,,2013-01-17 21:13:00,
2013-01-17 14:23:00,25.0,13.0,30.35,North,-999,-999.0,-999.0,59,-99.99,,,-99.99,,2013-01-17 21:23:00,
2013-01-17 14:33:00,25.0,13.0,30.35,North,-999,-999.0,-999.0,59,-99.99,,,-99.99,,2013-01-17 21:33:00,
2013-01-17 14:43:00,22.0,10.0,30.34,North,-999,-999.0,-999.0,59,-99.99,,,-99.99,,2013-01-17 21:43:00,
2013-01-17 14:52:00,22.0,10.0,30.34,North,-999,-999.0,-999.0,59,-99.99,,,-99.99,,2013-01-17 21:52:00,
2013-01-17 15:03:00,22.0,10.0,30.34,North,-999,-999.0,-999.0,59,-99.99,,,-99.99,,2013-01-17 22:03:00,
2013-01-17 15:12:00,22.0,10.0,30.34,North,-999,-999.0,-999.0,59,-99.99,,,-99.99,,2013-01-17 22:12:00,
2013-01-17 15:22:00,24.0,11.0,30.33,North,-999,-999.0,-999.0,56,-99.99,,,-99.99,,2013-01-17 22:22:00,
2013-01-17 15:33:00,24.0,11.0,30.33,North,-999,-999.0,-999.0,56,-99.99,,,-99.99,,2013-01-17 22:33:00,
2013-01-17 15:43:00,24.0,11.0,30.33,North,-999,-999.0,-999.0,56,-99.99,,,-99.99,,2013-01-17 22:43:00,
2013-01-17 15:52:00,24.0,12.0,30.34,North,-999,-999.0,-999.0,58,-99.99,,,-99.99,,2013-01-17 22:52:00,
2013-01-17 16:03:00,24.0,12.0,30.34,North,-999,-999.0,-999.0,58,-99.99,,,-99.99,,2013-01-17 23:03:00,
2013-01-17 16:12:00,24.0,12.0,30.34,North,-999,-999.0,-999.0,58,-99.99,,,-99.99,,2013-01-17 23:12:00,
2013-01-17 16:22:00,23.0,12.0,30.34,North,-999,-999.0,-999.0,61,-99.99,,,-99.99,,2013-01-17 23:22:00,
2013-01-17 16:32:00,23.0,12.0,30.34,North,-999,-999.0,-999.0,61,-99.99,,,-99.99,,2013-01-17 23:32:00,
2013-01-17 16:43:00,23.0,12.0,30.34,North,-999,-999.0,-999.0,61,-99.99,,,-99.99,,2013-01-17 23:43:00,
2013-01-17 16:52:00,23.0,12.0,30.34,North,-999,-999.0,-999.0,61,-99.99,,,-99.99,,2013-01-17 23:52:00,
2013-01-17 17:03:00,23.0,12.0,30.34,North,-999,-999.0,-999.0,61,-99.99,,,-99.99,,2013-01-18 00:03:00,
2013-01-17 17:12:00,23.0,12.0,30.34,North,-999,-999.0,-999.0,61,-99.99,,,-99.99,,2013-01-18 00:12:00,
2013-01-17 17:23:00,23.0,12.0,30.34,North,-999,-999.0,-999.0,61,-99.99,,,-99.99,,2013-01-18 00:23:00,
2013-01-17 17:43:00,24.0,13.0,30.33,North,-999,-999.0,-999.0,62,-99.99,,,-99.99,,2013-01-18 00:43:00,
2013-01-17 17:53:00,24.0,13.0,30.33,North,-999,-999.0,-999.0,62,-99.99,,,-99.99,,2013-01-18 00:53:00,
2013-01-17 18:03:00,24.0,13.0,30.33,North,-999,-999.0,-999.0,62,-99.99,,,-99.99,,2013-01-18 01:03:00,
2013-01-17 18:12:00,23.0,13.0,30.33,North,-999,-999.0,-999.0,65,-99.99,,,-99.99,,2013-01-18 01:12:00,
2013-01-17 18:22:00,23.0,13.0,30.33,North,-999,-999.0,-999.0,65,-99.99,,,-99.99,,2013-01-18 01:22:00,
2013-01-17 18:33:00,23.0,13.0,30.33,North,-999,-999.0,-999.0,65,-99.99,,,-99.99,,2013-01-18 01:33:00,
2013-01-17 18:43:00,23.0,13.0,30.33,North,-999,-999.0,-999.0,65,-99.99,,,-99.99,,2013-01-18 01:43:00,
2013-01-17 18:53:00,19.0,10.0,30.33,North,-999,-999.0,-999.0,65,-99.99,,,-99.99,,2013-01-18 01:53:00,
2013-01-17 19:02:00,19.0,10.0,30.33,North,-999,-999.0,-999.0,65,-99.99,,,-99.99,,2013-01-18 02:02:00,
2013-01-17 19:12:00,19.0,11.0,30.32,North,-999,-999.0,-999.0,71,-99.99,,,-99.99,,2013-01-18 02:12:00,
2013-01-17 19:22:00,19.0,11.0,30.32,North,-999,-999.0,-999.0,71,-99.99,,,-99.99,,2013-01-18 02:22:00,
2013-01-17 19:32:00,19.0,11.0,30.32,North,-999,-999.0,-999.0,71,-99.99,,,-99.99,,2013-01-18 02:32:00,
2013-01-17 19:43:00,19.0,11.0,30.32,North,-999,-999.0,-999.0,71,-99.99,,,-99.99,,2013-01-18 02:43:00,
2013-01-17 19:53:00,20.0,12.0,30.32,North,-999,-999.0,-999.0,70,-99.99,,,-99.99,,2013-01-18 02:53:00,
2013-01-17 20:02:00,20.0,12.0,30.32,North,-999,-999.0,-999.0,70,-99.99,,,-99.99,,2013-01-18 03:02:00,
2013-01-17 20:12:00,18.0,11.0,30.31,North,-999,-999.0,-999.0,73,-99.99,,,-99.99,,2013-01-18 03:12:00,
2013-01-17 20:22:00,18.0,11.0,30.31,North,-999,-999.0,-999.0,73,-99.99,,,-99.99,,2013-01-18 03:22:00,
2013-01-17 20:33:00,18.0,11.0,30.31,North,-999,-999.0,-999.0,73,-99.99,,,-99.99,,2013-01-18 03:33:00,
2013-01-17 20:42:00,16.0,10.0,30.31,North,-999,-999.0,-999.0,76,-99.99,,,-99.99,,2013-01-18 03:42:00,
2013-01-17 20:52:00,16.0,10.0,30.31,North,-999,-999.0,-999.0,76,-99.99,,,-99.99,,2013-01-18 03:52:00,
2013-01-17 21:02:00,16.0,10.0,30.31,North,-999,-999.0,-999.0,76,-99.99,,,-99.99,,2013-01-18 04:02:00,
2013-01-17 21:12:00,18.0,9.0,30.30,North,-999,-999.0,-999.0,66,-99.99,,,-99.99,,2013-01-18 04:12:00,
2013-01-17 21:22:00,18.0,9.0,30.30,North,-999,-999.0,-999.0,66,-99.99,,,-99.99,,2013-01-18 04:22:00,
2013-01-17 21:32:00,18.0,9.0,30.30,North,-999,-999.0,-999.0,66,-99.99,,,-99.99,,2013-01-18 04:32:00,
2013-01-17 21:42:00,23.0,8.0,30.30,North,-999,-999.0,-999.0,50,-99.99,,,-99.99,,2013-01-18 04:42:00,
2013-01-17 21:53:00,23.0,8.0,30.30,North,-999,-999.0,-999.0,50,-99.99,,,-99.99,,2013-01-18 04:53:00,
2013-01-17 22:03:00,23.0,8.0,30.30,North,-999,-999.0,-999.0,50,-99.99,,,-99.99,,2013-01-18 05:03:00,
2013-01-17 22:12:00,20.0,5.0,30.28,North,-999,-999.0,-999.0,52,-99.99,,,-99.99,,2013-01-18 05:12:00,
2013-01-17 22:22:00,20.0,5.0,30.28,North,-999,-999.0,-999.0,52,-99.99,,,-99.99,,2013-01-18 05:22:00,
2013-01-17 22:33:00,20.0,5.0,30.28,North,-999,-999.0,-999.0,52,-99.99,,,-99.99,,2013-01-18 05:33:00,
2013-01-17 22:43:00,24.0,5.0,30.27,North,-999,-999.0,-999.0,45,-99.99,,,-99.99,,2013-01-18 05:43:00,
2013-01-17 22:53:00,24.0,5.0,30.27,North,-999,-999.0,-999.0,45,-99.99,,,-99.99,,2013-01-18 05:53:00,
2013-01-17 23:02:00,24.0,5.0,30.27,North,-999,-999.0,-999.0,45,-99.99,,,-99.99,,2013-01-18 06:02:00,
2013-01-17 23:12:00,25.0,4.0,30.27,North,-999,-999.0,-999.0,40,-99.99,,,-99.99,,2013-01-18 06:12:00,
2013-01-17 23:22:00,25.0,4.0,30.27,North,-999,-999.0,-999.0,40,-99.99,,,-99.99,,2013-01-18 06:22:00,
2013-01-17 23:33:00,25.0,4.0,30.27,North,-999,-999.0,-999.0,40,-99.99,,,-99.99,,2013-01-18 06:33:00,
2013-01-17 23:43:00,26.0,4.0,30.26,North,-999,-999.0,-999.0,39,-99.99,,,-99.99,,2013-01-18 06:43:00,
2013-01-17 23:52:00,26.0,4.0,30.26,North,-999,-999.0,-999.0,39,-99.99,,,-99.99,,2013-01-18 06:52:00,